Flag for U.S.A. Weather past 2 weeks in Newark, New Jersey, U.S.A.

Now
74 °F

Scattered clouds.


Feels Like: 77 °F
Forecast: 54 / 73 °F
Wind: 8 mph from Northwest

Location: Newark International Airport

Current Time: Sep 17, 2014 at 5:39:18 PM

Latest Report: Sep 17, 2014 at 4:51 PM


Visibility: 10 mi

Pressure: 29.96 "Hg

Humidity: 33%

Dew point: 43 °F

Location of NewarkLocation

Historic Weather in Newark — Graph

°F

Newark temperature yesterday

Maximum temperature yesterday: 71 °F (at 3:51 PM)
Minimum temperature yesterday: 58 °F (at 9:51 AM)
Average temperature yesterday: 64 °F

Past Weeks' High & Low Weather Summary

 TemperatureHumidityPressure
High95 °F (Sep 2, 3:51 PM)97% (Sep 13, 7:51 PM)30.31 "Hg (Sep 13, 7:51 PM)
Low53 °F (Sep 14, 6:51 AM)32% (Sep 3, 2:51 PM)29.79 "Hg (Sep 2, 6:51 PM)
Average71 °F65%30.08 "Hg
* Reported Sep 2 3:51 PM — Sep 17 3:51 PM, Newark, Weather by CustomWeather, © 2014

Note: Actual official high and low records may vary slightly from our data, if they occured in-between our weather recording intervals... More about our weather records

Advertising

Newark weather history for previous 24 hours

 ConditionsComfort  
Time TempWeatherWind HumidityBarometerVisibility
3:51 PM
Sep 17
72 °FScattered clouds.7 mph33%29.96 "Hg10 mi
2:51 PM74 °FScattered clouds.6 mph32%29.97 "Hg10 mi
1:51 PM73 °FScattered clouds.9 mph34%29.99 "Hg10 mi
12:51 PM72 °FScattered clouds.6 mph34%30.02 "Hg10 mi
11:51 AM71 °FScattered clouds.9 mph34%30.03 "Hg10 mi
10:51 AM69 °FScattered clouds.9 mph36%30.05 "Hg10 mi
9:51 AM65 °FScattered clouds.5 mph51%30.06 "Hg10 mi
8:51 AM63 °FScattered clouds.9 mph56%30.06 "Hg10 mi
7:51 AM58 °FScattered clouds.6 mph72%30.06 "Hg10 mi
6:51 AM54 °FPassing clouds.5 mph83%30.04 "Hg10 mi
5:51 AM54 °FClear.5 mph83%30.04 "Hg10 mi
4:51 AM56 °FClear.No wind77%30.03 "Hg10 mi
3:51 AM57 °FClear.3 mph74%30.03 "Hg10 mi
2:51 AM58 °FClear.5 mph75%30.02 "Hg10 mi
1:51 AM59 °FPassing clouds.6 mph72%30.03 "Hg10 mi
12:51 AM61 °FPassing clouds.6 mph70%30.03 "Hg10 mi
11:51 PM
Sep 16
62 °FPassing clouds.7 mph65%30.03 "Hg10 mi
10:51 PM64 °FPassing clouds.7 mph61%30.02 "Hg10 mi
9:51 PM65 °FPassing clouds.9 mph61%30.01 "Hg10 mi
8:51 PM67 °FPassing clouds.8 mph57%30.01 "Hg10 mi
7:51 PM66 °FScattered clouds.7 mph56%29.99 "Hg10 mi
6:51 PM69 °FScattered clouds.9 mph53%29.98 "Hg10 mi
5:51 PM70 °FBroken clouds.9 mph51%29.97 "Hg10 mi
Weather by CustomWeather, © 2014

See weather overviewHow to use our weather pages